sat.trackr.live / text

‹ back to catalog

STARLINK-37068

NORAD 68085 · 2026-042S

PAYLOAD ACTIVE UNKNOWN

§ Identity

Operator
Country
US
Launch date
2026-03-04
Launch site
AFETR
Launch vehicle
Mass (kg)
RCS (m²)

Purposes: comms

External: N2YO · Heavens-Above · Gunter

§ Orbital elements

Epoch: 2026-09-19T23:10:24.498048Z

Period
93.85 min
Inclination
53.1598°
Eccentricity
0.0001359
Mean motion
15.34375422 rev/d
Perigee alt
461.8 km
Apogee alt
463.7 km
Semi-major
6,840.9 km
B*
7.3229e-4
RAAN
350.3486°
Arg perigee
98.8647°
Mean anomaly
261.2509°
Rev number
3,213

§ Raw data

STARLINK-370681 68085U 26042S   26262.96556132  .00024427  00000+0  73229-3 0  99902 68085  53.1598 350.3486 0001359  98.8647 261.2509 15.34375422 32139

JSON: /api/v1/satellites/68085 · /tle

For live sub-satellite position, see the globe view (requires WebGL).

§ Visibility from observer

Set your observer location to see the next 7 days of passes ≥ 10°. The values pass through the URL so the page stays shareable.

No JS? Fill the form by hand. The geolocation button needs JavaScript.